| time (UTC) | temp F | wind direction | speed MPH | gust MPH | rain 1hr in | rain 24hr in | rain mn in | humidity % | barometer mb |
| 20260507191018 | 81 | 62 | 3.0 | 6.0 | 0.00 | 0.11 | 0.00 | 34 | 1017.9 |
| 20260507190028 | 80 | 90 | 2.0 | 6.0 | 0.00 | 0.11 | 0.00 | 36 | 1018.1 |
| 20260507185024 | 81 | 80 | 4.0 | 8.0 | 0.00 | 0.11 | 0.00 | 36 | 1018.0 |
| 20260507184040 | 79 | 82 | 3.0 | 7.0 | 0.00 | 0.11 | 0.00 | 38 | 1017.9 |
| 20260507183030 | 78 | 64 | 4.0 | 8.0 | 0.00 | 0.11 | 0.00 | 38 | 1017.8 |
| 20260507182025 | 78 | 78 | 5.0 | 10.0 | 0.00 | 0.11 | 0.00 | 39 | 1017.7 |
| 20260507181020 | 77 | 76 | 3.0 | 9.0 | 0.00 | 0.11 | 0.00 | 39 | 1018.1 |
| 20260507180015 | 77 | 57 | 4.0 | 7.0 | 0.00 | 0.11 | 0.00 | 39 | 1018.0 |
| 20260507175026 | 77 | 58 | 4.0 | 10.0 | 0.00 | 0.11 | 0.00 | 39 | 1018.1 |
| 20260507174022 | 76 | 71 | 3.0 | 8.0 | 0.00 | 0.11 | 0.00 | 42 | 1018.3 |
| 20260507173017 | 77 | 60 | 5.0 | 10.0 | 0.00 | 0.11 | 0.00 | 40 | 1018.4 |
| 20260507172027 | 77 | 69 | 4.0 | 10.0 | 0.00 | 0.11 | 0.00 | 39 | 1018.7 |
| 20260507171023 | 77 | 31 | 2.0 | 7.0 | 0.00 | 0.11 | 0.00 | 41 | 1018.8 |
| 20260507170018 | 77 | 23 | 3.0 | 8.0 | 0.00 | 0.11 | 0.00 | 41 | 1019.2 |
| 20260507165029 | 78 | 359 | 3.0 | 9.0 | 0.00 | 0.11 | 0.00 | 40 | 1019.6 |
| 20260507164024 | 77 | 356 | 3.0 | 7.0 | 0.00 | 0.11 | 0.00 | 42 | 1019.6 |
| 20260507163020 | 76 | 100 | 3.0 | 7.0 | 0.00 | 0.11 | 0.00 | 43 | 1019.8 |
| 20260507162015 | 77 | 79 | 4.0 | 8.0 | 0.00 | 0.11 | 0.00 | 43 | 1019.8 |
| 20260507161026 | 76 | 74 | 4.0 | 9.0 | 0.00 | 0.11 | 0.00 | 44 | 1019.9 |
| 20260507160021 | 74 | 46 | 3.0 | 8.0 | 0.00 | 0.11 | 0.00 | 46 | 1019.8 |
| 20260507155017 | 74 | 86 | 3.0 | 7.0 | 0.00 | 0.11 | 0.00 | 47 | 1019.6 |
| 20260507154027 | 75 | 74 | 5.0 | 11.0 | 0.00 | 0.11 | 0.00 | 45 | 1019.6 |
| 20260507153022 | 73 | 69 | 4.0 | 8.0 | 0.00 | 0.11 | 0.00 | 49 | 1019.9 |
| 20260507152017 | 73 | 68 | 4.0 | 7.0 | 0.00 | 0.11 | 0.00 | 49 | 1020.0 |
| 20260507151028 | 72 | 59 | 2.0 | 6.0 | 0.00 | 0.11 | 0.00 | 51 | 1020.0 |
| 20260507150024 | 71 | 86 | 3.0 | 7.0 | 0.00 | 0.11 | 0.00 | 53 | 1020.1 |
| 20260507145019 | 70 | 49 | 3.0 | 6.0 | 0.00 | 0.11 | 0.00 | 53 | 1020.2 |
| 20260507144029 | 70 | 332 | 2.0 | 4.0 | 0.00 | 0.11 | 0.00 | 54 | 1020.4 |
| 20260507143025 | 70 | 73 | 2.0 | 4.0 | 0.00 | 0.11 | 0.00 | 53 | 1020.4 |
| 20260507142040 | 72 | 47 | 2.0 | 4.0 | 0.00 | 0.11 | 0.00 | 51 | 1020.3 |
| 20260507141016 | 75 | 44 | 3.0 | 7.0 | 0.00 | 0.11 | 0.00 | 46 | 1020.2 |
| 20260507140046 | 76 | 21 | 2.0 | 4.0 | 0.00 | 0.11 | 0.00 | 48 | 1020.5 |
| 20260507135021 | 71 | 18 | 2.0 | 6.0 | 0.00 | 0.11 | 0.00 | 57 | 1020.5 |
| 20260507134017 | 66 | 43 | 1.0 | 3.0 | 0.00 | 0.11 | 0.00 | 66 | 1020.5 |
| 20260507133027 | 62 | 308 | 0.0 | 1.0 | 0.00 | 0.11 | 0.00 | 74 | 1020.5 |
| 20260507132023 | 62 | 271 | 0.0 | 2.0 | 0.00 | 0.11 | 0.00 | 73 | 1020.5 |
| 20260507131018 | 62 | 256 | 0.0 | 2.0 | 0.00 | 0.11 | 0.00 | 73 | 1020.8 |
| 20260507130029 | 59 | 253 | 1.0 | 3.0 | 0.00 | 0.11 | 0.00 | 80 | 1020.6 |
| 20260507125024 | 58 | 249 | 0.0 | 1.0 | 0.00 | 0.11 | 0.00 | 83 | 1020.7 |
| 20260507124020 | 55 | 232 | 0.0 | 1.0 | 0.00 | 0.11 | 0.00 | 86 | 1020.7 |
| 20260507121543 | 52 | 156 | 0.0 | 2.0 | 0.00 | 0.11 | 0.00 | 88 | 1020.5 |
| 20260507120537 | 52 | 0.0 | 0.0 | 0.00 | 0.11 | 0.00 | 88 | 1020.7 | |
| 20260507115528 | 52 | 240 | 0.0 | 1.0 | 0.00 | 0.11 | 0.00 | 89 | 1020.7 |
| 20260507114522 | 52 | 255 | 0.0 | 2.0 | 0.00 | 0.11 | 0.00 | 89 | 1020.5 |
| 20260507113516 | 52 | 264 | 0.0 | 1.0 | 0.00 | 0.11 | 0.00 | 89 | 1020.3 |
| 20260507112526 | 52 | 265 | 0.0 | 1.0 | 0.00 | 0.11 | 0.00 | 88 | 1020.0 |
| 20260507111521 | 52 | 265 | 0.0 | 1.0 | 0.00 | 0.11 | 0.00 | 87 | 1019.9 |
| 20260507110530 | 52 | 261 | 0.0 | 1.0 | 0.00 | 0.11 | 0.00 | 87 | 1019.9 |
| 20260507105527 | 52 | 239 | 0.0 | 1.0 | 0.00 | 0.11 | 0.00 | 87 | 1019.6 |
| 20260507104523 | 52 | 258 | 0.0 | 1.0 | 0.00 | 0.11 | 0.00 | 86 | 1019.4 |
| 20260507103531 | 52 | 249 | 0.0 | 1.0 | 0.00 | 0.11 | 0.00 | 86 | 1019.1 |
| 20260507102526 | 52 | 239 | 0.0 | 2.0 | 0.00 | 0.11 | 0.00 | 85 | 1018.8 |
| 20260507101522 | 52 | 0.0 | 0.0 | 0.00 | 0.11 | 0.00 | 85 | 1018.9 | |
| 20260507100519 | 53 | 235 | 0.0 | 1.0 | 0.00 | 0.11 | 0.00 | 85 | 1018.5 |
| 20260507095530 | 53 | 236 | 0.0 | 2.0 | 0.00 | 0.11 | 0.00 | 84 | 1018.6 |
| 20260507094527 | 53 | 20 | 1.0 | 3.0 | 0.00 | 0.11 | 0.00 | 84 | 1018.2 |
| 20260507093523 | 53 | 6 | 1.0 | 3.0 | 0.00 | 0.11 | 0.00 | 83 | 1018.1 |
| 20260507092522 | 53 | 48 | 1.0 | 3.0 | 0.00 | 0.11 | 0.00 | 82 | 1018.0 |
| 20260507091520 | 54 | 76 | 1.0 | 2.0 | 0.00 | 0.11 | 0.00 | 81 | 1018.2 |
| 20260507090525 | 54 | 25 | 2.0 | 4.0 | 0.00 | 0.11 | 0.00 | 81 | 1018.2 |
| 20260507085530 | 55 | 27 | 2.0 | 4.0 | 0.00 | 0.11 | 0.00 | 81 | 1018.0 |
| 20260507084518 | 55 | 5 | 2.0 | 4.0 | 0.00 | 0.11 | 0.00 | 80 | 1017.8 |
| 20260507083520 | 55 | 52 | 3.0 | 6.0 | 0.00 | 0.11 | 0.00 | 80 | 1017.5 |
| 20260507082519 | 55 | 70 | 2.0 | 6.0 | 0.00 | 0.11 | 0.00 | 79 | 1017.7 |
| 20260507081528 | 56 | 33 | 3.0 | 8.0 | 0.00 | 0.11 | 0.00 | 79 | 1017.8 |
| 20260507080549 | 56 | 8 | 2.0 | 4.0 | 0.00 | 0.11 | 0.00 | 80 | 1017.8 |
| 20260507075530 | 56 | 27 | 2.0 | 6.0 | 0.00 | 0.11 | 0.00 | 78 | 1017.8 |
| 20260507074044 | 56 | 34 | 3.0 | 7.0 | 0.00 | 0.11 | 0.00 | 78 | 1017.6 |
| 20260507073028 | 57 | 11 | 4.0 | 8.0 | 0.00 | 0.11 | 0.00 | 78 | 1017.3 |
| 20260507072033 | 57 | 73 | 3.0 | 6.0 | 0.00 | 0.11 | 0.00 | 79 | 1017.1 |
| 20260507071039 | 57 | 60 | 4.0 | 6.0 | 0.00 | 0.11 | 0.00 | 79 | 1016.9 |
| 20260507070030 | 58 | 66 | 4.0 | 7.0 | 0.00 | 0.11 | 0.00 | 78 | 1017.0 |
| 20260507065024 | 58 | 62 | 4.0 | 8.0 | 0.00 | 0.11 | 0.00 | 76 | 1016.9 |
| 20260507064023 | 59 | 53 | 6.0 | 10.0 | 0.00 | 0.11 | 0.00 | 75 | 1017.0 |
| 20260507063028 | 59 | 52 | 6.0 | 10.0 | 0.00 | 0.11 | 0.00 | 75 | 1017.1 |
| 20260507062024 | 59 | 58 | 5.0 | 11.0 | 0.00 | 0.11 | 0.00 | 76 | 1017.0 |
| 20260507061034 | 59 | 56 | 4.0 | 8.0 | 0.00 | 0.11 | 0.00 | 77 | 1017.0 |
| 20260507060020 | 59 | 61 | 5.0 | 8.0 | 0.00 | 0.11 | 0.00 | 77 | 1016.8 |
| 20260507055025 | 59 | 42 | 5.0 | 10.0 | 0.00 | 0.11 | 0.00 | 76 | 1016.9 |
| 20260507054102 | 59 | 60 | 5.0 | 9.0 | 0.00 | 0.11 | 0.00 | 76 | 1017.0 |
| 20260507053037 | 60 | 65 | 6.0 | 9.0 | 0.00 | 0.11 | 0.00 | 77 | 1017.0 |
| 20260507052045 | 60 | 62 | 5.0 | 9.0 | 0.00 | 0.11 | 0.00 | 77 | 1017.0 |
| 20260507051026 | 60 | 59 | 4.0 | 8.0 | 0.00 | 0.11 | 0.00 | 77 | 1017.0 |
| 20260507050041 | 59 | 56 | 4.0 | 8.0 | 0.00 | 0.11 | 0.11 | 78 | 1017.0 |
| 20260507045023 | 59 | 55 | 5.0 | 8.0 | 0.00 | 0.11 | 0.11 | 78 | 1017.0 |
| 20260507044518 | 59 | 55 | 4.0 | 8.0 | 0.00 | 0.11 | 0.11 | 78 | 1017.1 |
| 20260507043540 | 59 | 63 | 5.0 | 8.0 | 0.00 | 0.11 | 0.11 | 78 | 1017.2 |
| 20260507042527 | 59 | 59 | 5.0 | 9.0 | 0.00 | 0.11 | 0.11 | 78 | 1017.3 |
| 20260507041530 | 59 | 59 | 4.0 | 8.0 | 0.00 | 0.11 | 0.11 | 78 | 1017.4 |
| 20260507040531 | 59 | 61 | 5.0 | 8.0 | 0.00 | 0.11 | 0.11 | 78 | 1017.3 |
| 20260507035526 | 59 | 69 | 6.0 | 13.0 | 0.00 | 0.11 | 0.11 | 79 | 1017.3 |
| 20260507034601 | 60 | 66 | 5.0 | 10.0 | 0.00 | 0.11 | 0.11 | 79 | 1017.4 |
| 20260507033516 | 60 | 62 | 5.0 | 11.0 | 0.00 | 0.11 | 0.11 | 79 | 1017.3 |
| 20260507032530 | 60 | 68 | 5.0 | 9.0 | 0.00 | 0.11 | 0.11 | 79 | 1017.2 |
| 20260507031609 | 60 | 80 | 2.0 | 4.0 | 0.00 | 0.11 | 0.11 | 80 | 1017.2 |
| 20260507030604 | 60 | 65 | 1.0 | 3.0 | 0.00 | 0.11 | 0.11 | 81 | 1017.1 |
| 20260507025518 | 60 | 39 | 2.0 | 6.0 | 0.00 | 0.11 | 0.11 | 81 | 1016.9 |
| 20260507024528 | 60 | 74 | 3.0 | 6.0 | 0.00 | 0.11 | 0.11 | 80 | 1016.8 |
| 20260507023524 | 60 | 78 | 3.0 | 7.0 | 0.00 | 0.11 | 0.11 | 79 | 1016.5 |
| 20260507022516 | 60 | 68 | 4.0 | 7.0 | 0.00 | 0.11 | 0.11 | 79 | 1016.3 |
| 20260507021607 | 61 | 65 | 4.0 | 7.0 | 0.00 | 0.11 | 0.11 | 79 | 1016.0 |
| 20260507020522 | 61 | 80 | 3.0 | 7.0 | 0.00 | 0.11 | 0.11 | 79 | 1015.9 |
| 20260507015518 | 61 | 65 | 4.0 | 9.0 | 0.00 | 0.11 | 0.11 | 79 | 1015.6 |
| 20260507014528 | 61 | 78 | 3.0 | 8.0 | 0.00 | 0.11 | 0.11 | 79 | 1015.4 |
| 20260507013523 | 61 | 23 | 3.0 | 7.0 | 0.00 | 0.11 | 0.11 | 78 | 1015.2 |
| 20260507012518 | 62 | 65 | 1.0 | 3.0 | 0.00 | 0.11 | 0.11 | 79 | 1014.9 |
| 20260507011548 | 62 | 81 | 3.0 | 4.0 | 0.00 | 0.11 | 0.11 | 79 | 1014.7 |
| 20260507010544 | 62 | 65 | 2.0 | 4.0 | 0.00 | 0.11 | 0.11 | 79 | 1014.6 |
| 20260507005539 | 62 | 78 | 2.0 | 3.0 | 0.00 | 0.11 | 0.11 | 78 | 1014.5 |
| 20260507004549 | 63 | 81 | 2.0 | 3.0 | 0.00 | 0.11 | 0.11 | 77 | 1014.6 |
| 20260507003524 | 63 | 71 | 2.0 | 4.0 | 0.00 | 0.11 | 0.11 | 77 | 1014.7 |
| 20260507002519 | 63 | 58 | 1.0 | 3.0 | 0.00 | 0.11 | 0.11 | 76 | 1014.5 |
| 20260507001530 | 64 | 61 | 2.0 | 3.0 | 0.07 | 0.11 | 0.11 | 76 | 1014.4 |
| 20260507000525 | 64 | 76 | 1.0 | 2.0 | 0.11 | 0.11 | 0.11 | 77 | 1014.4 |
| 20260506235520 | 64 | 75 | 1.0 | 3.0 | 0.11 | 0.11 | 0.11 | 75 | 1014.2 |
| 20260506234536 | 64 | 22 | 1.0 | 3.0 | 0.11 | 0.11 | 0.11 | 75 | 1014.3 |
| 20260506233526 | 64 | 296 | 1.0 | 4.0 | 0.11 | 0.11 | 0.11 | 75 | 1013.9 |
| 20260506232522 | 64 | 331 | 3.0 | 7.0 | 0.11 | 0.11 | 0.11 | 71 | 1013.8 |
| 20260506231517 | 66 | 67 | 3.0 | 9.0 | 0.04 | 0.04 | 0.04 | 64 | 1013.9 |
| 20260506230527 | 67 | 258 | 3.0 | 7.0 | 0.00 | 0.00 | 0.00 | 59 | 1014.0 |
| 20260506225522 | 67 | 68 | 3.0 | 7.0 | 0.00 | 0.00 | 0.00 | 59 | 1013.7 |
| 20260506224517 | 67 | 240 | 2.0 | 4.0 | 0.00 | 0.00 | 0.00 | 59 | 1013.9 |
| 20260506223548 | 68 | 8 | 2.0 | 7.0 | 0.00 | 0.00 | 0.00 | 58 | 1013.9 |
| 20260506222523 | 68 | 281 | 3.0 | 7.0 | 0.00 | 0.00 | 0.00 | 56 | 1013.6 |
| 20260506221518 | 68 | 81 | 2.0 | 8.0 | 0.00 | 0.00 | 0.00 | 57 | 1013.4 |
| 20260506220529 | 68 | 283 | 3.0 | 11.0 | 0.00 | 0.00 | 0.00 | 57 | 1013.8 |
| 20260506215544 | 68 | 50 | 2.0 | 6.0 | 0.00 | 0.00 | 0.00 | 57 | 1013.5 |
| 20260506214519 | 68 | 326 | 3.0 | 8.0 | 0.00 | 0.00 | 0.00 | 56 | 1013.7 |
| 20260506213530 | 69 | 261 | 3.0 | 9.0 | 0.00 | 0.00 | 0.00 | 55 | 1013.6 |
| 20260506212525 | 70 | 54 | 2.0 | 6.0 | 0.00 | 0.00 | 0.00 | 54 | 1013.5 |
| 20260506211520 | 69 | 28 | 3.0 | 8.0 | 0.00 | 0.00 | 0.00 | 54 | 1013.7 |
| 20260506210515 | 70 | 326 | 3.0 | 9.0 | 0.00 | 0.00 | 0.00 | 52 | 1013.6 |
| 20260506205606 | 70 | 339 | 3.0 | 9.0 | 0.00 | 0.00 | 0.00 | 53 | 1013.8 |
| 20260506204521 | 70 | 335 | 2.0 | 10.0 | 0.00 | 0.00 | 0.00 | 54 | 1013.8 |
| 20260506203516 | 70 | 260 | 3.0 | 10.0 | 0.00 | 0.00 | 0.00 | 54 | 1014.0 |
| 20260506202527 | 69 | 354 | 3.0 | 9.0 | 0.00 | 0.00 | 0.00 | 55 | 1014.4 |
| 20260506201522 | 67 | 10 | 3.0 | 7.0 | 0.00 | 0.00 | 0.00 | 58 | 1014.2 |
| 20260506200537 | 67 | 16 | 3.0 | 11.0 | 0.00 | 0.00 | 0.00 | 57 | 1014.6 |
| 20260506195608 | 67 | 323 | 3.0 | 7.0 | 0.00 | 0.00 | 0.00 | 59 | 1014.7 |
| 20260506194523 | 66 | 58 | 3.0 | 9.0 | 0.00 | 0.00 | 0.00 | 60 | 1014.6 |
| 20260506193518 | 65 | 28 | 3.0 | 6.0 | 0.00 | 0.00 | 0.00 | 61 | 1014.6 |
| 20260506192529 | 64 | 246 | 3.0 | 10.0 | 0.00 | 0.00 | 0.00 | 63 | 1014.6 |